Location: Beeston
(52.7000°N, 0.8167°E)
Time: 11:44:04
(UTC+00:00)

ACS3 Solar Sail - Pass Details

Date: 15 May 2026
Orbit: 881 x 950 km, 97.2° (Epoch: 6 June)

Event Time Altitude Azimuth Distance (km) Brightness Sun altitude
Rises 23:26:02 0° 22° (NNE) 3,505 5.8 -18.0°
Reaches altitude 10° 23:29:08 10° 38° (NE) 2,554 4.6 -18.1°
Maximum altitude 23:33:16 20° 85° (E) 1,911 3.3 -18.1°
Enters shadow 23:36:19 14° 124° (ESE) 2,280 3.4 -18.2°
